Regional Weather Roundup
Issued by NWS

Home | Current Version | Previous Version | Graphics & Text | Print | Product List | Glossary On
Versions: 1 2 3 4 5 6 7 8 9 10 11 12 13 14 15 16 17 18 19 20 21 22 23 24 25 26 27 28 29 30 31 32 33 34 35 36 37 38 39 40 41 42 43 44 45 46 47 48 49 50
000
ASUS44 KMEG 072210
RWRTN
TENNESSEE HOURLY STATE WEATHER ROUNDUP
NATIONAL WEATHER SERVICE MEMPHIS TN
400 PM CST WED DEC 07 2016

TNZ002-004-019-021-049-052-054-088>092-072300-
WEST TENNESSEE

CITY           SKY/WX    TMP DP  RH WIND       PRES   REMARKS
MEMPHIS INTL   CLOUDY    45  34  65 NE8       30.18R
NWS MEMPHIS      N/A     44 N/A N/A MISG        N/A
JACKSON        PTCLDY    45  32  60 N8        30.16S
DYERSBURG      PTCLDY    45  27  49 E6        30.18R
UNION CITY     CLOUDY    43  27  52 CALM      30.17R
PARIS          CLEAR     41  25  52 CALM      30.16S
HUNTINGDON     CLEAR     45  28  53 VRB3      30.15S
LEXINGTON      CLEAR     45  28  53 N5        30.15R
$$

TNZ008-025-027-028-033-062-065-066-072300-
NORTH MIDDLE TENNESSEE

CITY           SKY/WX    TMP DP  RH WIND       PRES   REMARKS
NASHVILLE      MOCLDY    46  31  55 N8        30.14S
PORTLAND       CLEAR     43  28  56 NE3       30.13F
CLARKSVILLE    PTCLDY    45  24  43 N5        30.16R
SMYRNA         PTCLDY    46  31  55 N3        30.15R
GALLATIN       CLEAR     46  30  53 N7        30.17S
CROSSVILLE     PTCLDY    40  34  79 N8        30.08R WCI  34
$$

TNZ061-075-076-078-094-096-097-072300-
SOUTH MIDDLE TENNESSEE

CITY           SKY/WX    TMP DP  RH WIND       PRES   REMARKS
FAYETTEVILLE   CLOUDY    43  36  75 VRB5      30.12S
TULLAHOMA      CLOUDY    39  34  81 NW6       30.13R WCI  35
WINCHESTER     CLOUDY    43  36  75 NW6       30.12S
MCMINNVILLE    CLOUDY    41  34  75 NW6         N/A
COLUMBIA       PTCLDY    45  37  76 CALM      30.12S
SHELBYVILLE    MOCLDY    43  36  75 CALM      30.14S
$$

TNZ017-018-042-046-047-072300-
NORTHEAST TENNESSEE

CITY           SKY/WX    TMP DP  RH WIND       PRES   REMARKS
TRI CITIES     PTCLDY    47  32  56 N7        30.03S
ELIZABETHTON   DRIZZLE   50  36  57 CALM      30.01S
$$

TNZ012-013-036-069-073-074-072300-
CENTRAL EAST TENNESSEE

CITY           SKY/WX    TMP DP  RH WIND       PRES   REMARKS
KNOXVILLE      MOCLDY    54  37  52 NW5       30.04R
OAK RIDGE      CLOUDY    50  36  58 CALM      30.07R
DOWNTOWN KNOXV PTCLDY    52  41  66 VRB6      30.05R
GATLINBURG     CLEAR     52  37  58 CALM      30.04R
MORRISTOWN     CLEAR     52  36  54 CALM      30.03R
JACKSBORO      CLEAR     43  36  75 CALM      30.12R
$$

TNZ083-085-099-072300-
SOUTHEAST TENNESSEE

CITY           SKY/WX    TMP DP  RH WIND       PRES   REMARKS
CHATTANOOGA    MOCLDY    54  37  52 W6        30.07R
$$

SKY/WX REPORTED AS FAIR MEANS FEW OR NO CLOUDS BELOW
12 THOUSAND FEET.





USA.gov is the U.S. government's official web portal to all federal, state and local government web resources and services.